Other Public Products
Issued by NWS Grand Forks, ND

Home | Current Version | Previous Version | Text Only | Print | Product List | Glossary Off
Versions: 1 2 3 4 5 6 7 8 9 10 11 12 13 14 15 16 17 18 19 20 21 22 23 24 25 26 27 28 29 30 31 32 33 34 35 36 37 38 39 40 41 42 43 44 45 46 47 48 49 50

000
FPUS83 KFGF 211631
OPUFGF
PRAIRIE TO PINES WEATHER ROUNDUP
NATIONAL WEATHER SERVICE EASTERN NORTH DAKOTA/GRAND FORKS ND
1100 AM CDT SUN SEP 21 2014

 **SATELLITE DATA USED TO AUGMENT SKY COVER AT AUTOMATED STATIONS**
 *****  WEATHER ACROSS EASTERN NORTH DAKOTA  *****

CITY           SKY/WX    TMP DP  RH WIND       PRES   REMARKS
GRAND FORKS    CLOUDY    55  52  88 N8        30.23R
GRAND FORKS AF CLOUDY    58  54  88 N8        30.23R
GRAND CITY NWS   N/A     55 N/A N/A N7          N/A
BUXTON           N/A     58  55  88 NW8         N/A
DEVILS LAKE    SUNNY     59  46  63 NW9       30.23S
FARGO          CLOUDY    57  51  80 N10       30.22S
WAHPETON ARPT  MOSUNNY   59  48  67 NW9       30.23R
$$

 *****  WEATHER ACROSS CENTRAL AND WESTERN NORTH DAKOTA  *****

CITY           SKY/WX    TMP DP  RH WIND       PRES   REMARKS
JAMESTOWN      SUNNY     59  50  72 NW9       30.25R
BISMARCK       SUNNY     61  46  57 W5        30.30R
MINOT          SUNNY     62  45  53 NW7       30.26S
MINOT AFB      SUNNY     60  47  62 NW6       30.26S
GARRISON         N/A     61  46  57 NW7       30.28R
WILLISTON      SUNNY     56  41  57 VRB3      30.30S
DICKINSON      SUNNY     62  42  47 W7        30.30S
HETTINGER      SUNNY     63  40  42 NW6       30.33S
$$

 *****  OTHER OBSERVATIONS NORTHEAST NORTH DAKOTA  *****

CITY           SKY/WX    TMP DP  RH WIND       PRES   REMARKS
WALHALLA         N/A     57  55  94 N12       30.23R
LANGDON        PTSUNNY   57  50  77 N10       30.23S
CAVALIER       CLOUDY    55  50  82 NW9       30.23R
GRAFTON        CLOUDY    55  52  88 NW7       30.23R
CANDO          FAIR      63  50  63 N12       30.25S
FORT TOTTEN    NOT AVBL
ROLLA          FAIR      59  48  67 N8        30.26R
RUGBY          FAIR      59  48  67 CALM      30.25S
 ***** THE ABOVE OBSERVATIONS ARE NON NWS ARE NOT QUALITY
        CONTROLLED AND MAY MIS-REPORT RAIN FOR SNOW...
$$

 *****  OTHER OBSERVATIONS SOUTHEAST NORTH DAKOTA *****

CITY           SKY/WX    TMP DP  RH WIND       PRES   REMARKS
COOPERSTOWN    NOT AVBL
VALLEY CITY    PTSUNNY   59  54  82 N10       30.25S
OAKES            N/A     61  52  72 NW10G16   30.25S
GWINNER        SUNNY     63  50  63 N12       30.25S
SHEYENNE NWR     N/A     60  51  71 N7        29.95S
BUFFALO          N/A     60  46  59 N8          N/A
WYNDMERE         N/A     61  52  72 NW9         N/A
 ***** THE ABOVE OBSERVATIONS ARE NON NWS ARE NOT QUALITY
       CONTROLLED AND MAY MIS-REPORT RAIN FOR SNOW...
$$

  *****  WEATHER ACROSS NORTHERN MINNESOTA  *****

CITY           SKY/WX    TMP DP  RH WIND       PRES   REMARKS
FLAG ISLAND    SUNNY     54  48  82 NW5       30.16S
WARROAD        SUNNY     57  50  77 NW5       30.19R
ROSEAU         CLOUDY    55  52  88 NW6       30.19R
HALLOCK        CLOUDY    55  54  94 NW8       30.22R
THF RVR FALLS  CLOUDY    55  50  82 NW13      30.20S
HALSTAD          N/A     54  52  92 N9          N/A
FOSSTON        CLOUDY    54  50  87 NW9       30.21R
BAUDETTE       MOSUNNY   58  49  72 NW7       30.17S
WASKISH        MOSUNNY   54  52  94 CALM      30.18R
CROOKSTON      CLOUDY    54  52  94 NW9       30.23R
$$
  *****  WEATHER ACROSS CENTRAL AND WEST MINNESOTA  *****

CITY           SKY/WX    TMP DP  RH WIND       PRES   REMARKS
BEMIDJI        PTSUNNY   57  49  74 NW9       30.17S
PARK RAPIDS    CLOUDY    54  50  86 NW14      30.17R
WADENA         CLOUDY    55  50  82 NW9       30.18R
DETROIT LAKES  CLOUDY    54  50  87 N7        30.21R
MOORHEAD       CLOUDY    55  54  94 N7        30.23S
FERGUS FALLS   CLOUDY    55  48  76 N14G20    30.22R
ELBOW LAKE     CLOUDY    56  50  80 NW14      30.21R
MORRIS MN      SUNNY     57  52  82 N13       30.21R
STAPLES        CLOUDY    55  48  76 NW13      30.17R
WHEATON        MOSUNNY   57  50  77 NW12      30.24R
$$
  *****  WEATHER ELSEWHERE ACROSS MINNESOTA  *****

CITY           SKY/WX    TMP DP  RH WIND       PRES   REMARKS
DULUTH         MOSUNNY   57  43  59 N13       30.08R
INTRNTL FALLS  SUNNY     53  42  66 NE7       30.15R
ELY            SUNNY     50  37  62 N5        30.10S
CLOQUET        PTSUNNY   55  45  67 N18G25    30.10S
BRAINERD       MOSUNNY   57  47  69 N12       30.15R
HIBBING        MOSUNNY   57  46  66 N10       30.11R
ALEXANDRIA     CLOUDY    56  50  80 N12       30.20R
SAINT CLOUD    PTSUNNY   60  48  64 NW9       30.15R
MINNEAPOLIS    PTSUNNY   58  49  72 NW16      30.12R
$$

  *****  WEATHER ACROSS SOUTH DAKOTA  *****

CITY           SKY/WX    TMP DP  RH WIND       PRES   REMARKS
SIOUX FALLS    MOSUNNY   64  47  53 N15       30.23R
BROOKINGS      NOT AVBL
WATERTOWN      SUNNY     62  48  60 N16       30.23R
HURON          SUNNY     62  46  55 N9        30.27R
SISSETON         N/A     61  51  70 N15G21    30.22R
ABERDEEN       SUNNY     63  49  60 N9        30.27R
MITCHELL         N/A     64  46  52 NW10      30.28R
PIERRE         SUNNY     63  43  48 W7        30.30R
MOBRIDGE       SUNNY     54  45  71 W7        30.28R
RAPID CITY     SUNNY     64  38  38 CALM      30.36S
$$

  *****  SOME WEATHER IN NEARBY STATES *****

CITY           SKY/WX    TMP DP  RH WIND       PRES   REMARKS
GLASGOW MT     SUNNY     58  41  53 S5        30.29S
GREAT FALLS MT SUNNY     58  46  64 SE5       30.23S
CHEYENNE WY    SUNNY     61  36  39 S17G24    30.42S
SCOTTSBLUFF NE CLOUDY    62  40  44 SE6       30.40R
OMAHA NE       SUNNY     66  49  54 N16       30.22S
DES MOINES IA  MOSUNNY   66  47  50 N16G25    30.12R
DAVENPORT IA   PTSUNNY   62  48  60 NW17G24   30.02R
CHICAGO IL     CLOUDY    63  50  62 NW22      29.87R
EAU CLAIRE WI  MOSUNNY   58  45  62 N13G23    30.05R
LA CROSSE WI   CLOUDY    61  50  67 N18G26    30.02R
$$

  *****  SOME NATIONAL WEATHER *****

CITY           SKY/WX    TMP DP  RH WIND       PRES   REMARKS
LA GUARDIA NY  CLOUDY    72  67  84 NE5       29.80F
RALEIGH NC     PTSUNNY   77  62  59 VRB3      29.90F
ATLANTA GA     MOSUNNY   82  62  50 W9        30.06F
NEW ORLEANS LA MOSUNNY   85  69  58 NE10      30.04R
OKLAHOMA CITY  MOSUNNY   85  68  56 N10       30.14R
ALBUQUERQUE NM PTSUNNY   73  54  51 E18G30    30.32R
SALT LAKE CITY CLOUDY    66  51  58 S6        30.14F
LOS ANGELES CA PTSUNNY   70  61  73 NE5       30.00R
BOISE ID       MOSUNNY   70  44  39 SE8       30.05R
SEATTLE WA     MOSUNNY   61  56  83 S5        29.89S
$$

*** WEATHER ACROSS MANITOBA...SASKATCHEWAN AND ONTARIO ***
                ***ONTARIO***

CITY           SKY/WX    TMP DP  RH WIND       PRES   REMARKS
GERALDTON      DRIZZLE   41  37  87 N8        30.01
THUNDER BAY    PTSUNNY   52  37  58 NW13      30.06R
SIOUX LOOKOUT  MOSUNNY   52  41  66 N7        30.12R
TORONTO        MOSUNNY   73  61  64 W21G28    29.55S
BIG TROUT LK   CLOUDY    39  34  81 N5        30.09R
PICKLE LAKE    PTSUNNY   43  34  70 VRB5      30.10R
DRYDEN         SUNNY     52  41  66 NW5       30.14R
KENORA         PTSUNNY   52  48  87 NW3       30.17R
$$
                *** MANITOBA***

CITY           SKY/WX    TMP DP  RH WIND       PRES   REMARKS
BRANDON        MOSUNNY   59  52  77 NW3       30.24R
DAUPHIN        SUNNY     59  48  67 W6        30.19F
ISLAND LAKE    MOSUNNY   52  41  66 CALM      30.09F
PILOT MOUND    NOT AVBL
THE PAS        MOSUNNY   57  48  72 SW10      30.09F
THOMPSON       CLOUDY    45  45 100 SW8       30.02F FOG
WINNIPEG       PTSUNNY   55  54  94 NE6       30.21R
LYNN LAKE      SUNNY     55  46  71 SW14G20   29.92F
CHURCHILL      LGT RAIN  37  36  93 S6        29.89F
GILLAM         PTSUNNY   45  41  87 SW7       29.99F
$$
                ***SASKATCHEWAN***

CITY           SKY/WX    TMP DP  RH WIND       PRES   REMARKS
ESTEVAN        SUNNY     55  46  71 W6        30.28S
KINDERSLEY     SUNNY     57  45  62 S12       30.19S
LLOYDMINSTER   SUNNY     63  43  48 SW9       30.09S
PRINCE ALBERT  MOSUNNY   57  45  62 SW8       30.11F
REGINA         SUNNY     59  45  58 SW3       30.25S


USA.gov is the U.S. government's official web portal to all federal, state and local government web resources and services.